Time,TemperatureF,DewpointF,PressureIn,WindDirection,WindDirectionDegrees,WindSpeedMPH,WindSpeedGustMPH,Humidity,HourlyPrecipIn,Conditions,Clouds,dailyrainin,SoftwareType,DateUTC
2013-06-03 00:03:00,67.0,67.0,29.93,SE,139,0.0,0.0,99,0.03,,,0.02,,2013-06-03 04:03:00,
2013-06-03 00:13:00,67.0,67.0,29.93,SE,139,0.0,0.0,99,0.03,,,0.02,,2013-06-03 04:13:00,
2013-06-03 00:23:00,66.0,66.0,29.93,East,101,0.0,0.0,99,0.00,,,0.17,,2013-06-03 04:23:00,
2013-06-03 00:33:00,65.0,65.0,29.93,East,101,0.0,0.0,100,0.00,,,0.17,,2013-06-03 04:33:00,
2013-06-03 00:42:00,65.0,65.0,29.93,East,101,0.0,0.0,100,0.00,,,0.17,,2013-06-03 04:42:00,
2013-06-03 00:53:00,65.0,65.0,29.93,East,101,0.0,0.0,100,0.00,,,0.17,,2013-06-03 04:53:00,
2013-06-03 01:02:00,65.0,65.0,29.93,East,101,0.0,0.0,100,0.00,,,0.17,,2013-06-03 05:02:00,
2013-06-03 01:12:00,65.0,65.0,29.93,East,101,0.0,0.0,100,0.00,,,0.17,,2013-06-03 05:12:00,
2013-06-03 01:22:00,65.0,65.0,29.93,East,101,0.0,0.0,100,0.00,,,0.17,,2013-06-03 05:22:00,
2013-06-03 01:32:00,65.0,65.0,29.93,East,101,0.0,0.0,100,0.00,,,0.17,,2013-06-03 05:32:00,
2013-06-03 01:42:00,65.0,65.0,29.93,East,101,0.0,0.0,100,0.00,,,0.17,,2013-06-03 05:42:00,
2013-06-03 01:52:00,65.0,65.0,29.93,East,101,0.0,0.0,100,0.00,,,0.17,,2013-06-03 05:52:00,
2013-06-03 02:02:00,64.0,64.0,29.93,East,101,0.0,0.0,100,0.00,,,0.17,,2013-06-03 06:02:00,
2013-06-03 02:12:00,64.0,64.0,29.93,East,101,0.0,0.0,100,0.00,,,0.17,,2013-06-03 06:12:00,
2013-06-03 02:22:00,64.0,64.0,29.93,East,101,0.0,0.0,100,0.00,,,0.17,,2013-06-03 06:22:00,
2013-06-03 02:32:00,63.0,63.0,29.93,East,101,0.0,0.0,100,0.00,,,0.17,,2013-06-03 06:32:00,
2013-06-03 02:42:00,63.0,63.0,29.93,East,101,0.0,0.0,100,0.00,,,0.17,,2013-06-03 06:42:00,
2013-06-03 02:53:00,63.0,63.0,29.93,East,101,0.0,0.0,100,0.00,,,0.17,,2013-06-03 06:53:00,
2013-06-03 03:02:00,63.0,63.0,29.92,East,101,0.0,0.0,100,0.00,,,0.17,,2013-06-03 07:02:00,
2013-06-03 03:12:00,63.0,63.0,29.92,East,101,0.0,0.0,100,0.00,,,0.17,,2013-06-03 07:12:00,
2013-06-03 03:22:00,63.0,63.0,29.92,East,101,0.0,0.0,100,0.00,,,0.17,,2013-06-03 07:22:00,
2013-06-03 03:32:00,63.0,63.0,29.92,East,101,0.0,0.0,100,0.00,,,0.17,,2013-06-03 07:32:00,
2013-06-03 03:42:00,63.0,63.0,29.92,East,101,0.0,0.0,100,0.00,,,0.17,,2013-06-03 07:42:00,
2013-06-03 03:52:00,63.0,63.0,29.93,SSE,153,0.0,0.0,100,0.00,,,0.17,,2013-06-03 07:52:00,
2013-06-03 04:02:00,63.0,63.0,29.92,SE,132,0.0,0.0,100,0.00,,,0.17,,2013-06-03 08:02:00,
2013-06-03 04:12:00,63.0,63.0,29.92,SE,132,0.0,0.0,100,0.00,,,0.17,,2013-06-03 08:12:00,
2013-06-03 04:22:00,63.0,63.0,29.92,SE,132,0.0,0.0,100,0.00,,,0.17,,2013-06-03 08:22:00,
2013-06-03 04:32:00,63.0,63.0,29.93,SSE,150,0.0,0.0,100,0.00,,,0.17,,2013-06-03 08:32:00,
2013-06-03 04:42:00,63.0,63.0,29.93,SSE,150,0.0,0.0,100,0.00,,,0.17,,2013-06-03 08:42:00,
2013-06-03 04:52:00,63.0,63.0,29.93,South,170,0.0,0.0,100,0.00,,,0.17,,2013-06-03 08:52:00,
2013-06-03 05:02:00,63.0,63.0,29.93,South,170,0.0,0.0,100,0.00,,,0.17,,2013-06-03 09:02:00,
2013-06-03 05:12:00,63.0,63.0,29.93,South,170,0.0,0.0,100,0.00,,,0.17,,2013-06-03 09:12:00,
2013-06-03 05:22:00,62.0,62.0,29.93,SE,125,0.0,0.0,100,0.00,,,0.17,,2013-06-03 09:22:00,
2013-06-03 05:33:00,62.0,62.0,29.93,WNW,285,1.0,1.0,100,0.00,,,0.17,,2013-06-03 09:33:00,
2013-06-03 05:42:00,62.0,62.0,29.93,WNW,285,1.0,1.0,100,0.00,,,0.17,,2013-06-03 09:42:00,
2013-06-03 05:53:00,62.0,62.0,29.93,WNW,290,0.0,0.0,100,0.00,,,0.17,,2013-06-03 09:53:00,
2013-06-03 06:03:00,62.0,62.0,29.93,NW,314,0.0,0.0,100,0.00,,,0.17,,2013-06-03 10:03:00,
2013-06-03 06:12:00,61.0,61.0,29.93,North,1,0.0,0.0,100,0.00,,,0.17,,2013-06-03 10:12:00,
2013-06-03 06:22:00,61.0,61.0,29.93,North,1,0.0,0.0,100,0.00,,,0.17,,2013-06-03 10:22:00,
2013-06-03 06:33:00,61.0,61.0,29.94,North,356,0.0,0.0,100,0.00,,,0.17,,2013-06-03 10:33:00,
2013-06-03 06:42:00,61.0,61.0,29.94,North,356,0.0,0.0,100,0.00,,,0.17,,2013-06-03 10:42:00,
2013-06-03 06:52:00,61.0,61.0,29.94,North,6,0.0,0.0,100,0.00,,,0.17,,2013-06-03 10:52:00,
2013-06-03 07:02:00,61.0,61.0,29.95,NW,308,2.0,0.0,100,0.00,,,0.17,,2013-06-03 11:02:00,
2013-06-03 07:12:00,61.0,61.0,29.95,NW,308,2.0,0.0,100,0.00,,,0.17,,2013-06-03 11:12:00,
2013-06-03 07:22:00,61.0,61.0,29.95,NW,308,0.0,0.0,100,0.00,,,0.17,,2013-06-03 11:22:00,
2013-06-03 07:32:00,61.0,61.0,29.95,NW,308,0.0,0.0,100,0.00,,,0.17,,2013-06-03 11:32:00,
2013-06-03 07:42:00,61.0,61.0,29.95,NW,308,0.0,0.0,100,0.00,,,0.17,,2013-06-03 11:42:00,
2013-06-03 07:52:00,61.0,61.0,29.96,NW,319,2.0,0.0,100,0.00,,,0.17,,2013-06-03 11:52:00,
2013-06-03 08:02:00,61.0,61.0,29.96,NW,323,2.0,3.0,100,0.00,,,0.17,,2013-06-03 12:02:00,
2013-06-03 08:12:00,61.0,61.0,29.96,NW,323,2.0,3.0,100,0.00,,,0.17,,2013-06-03 12:12:00,
2013-06-03 08:22:00,61.0,61.0,29.96,NNW,347,0.0,0.0,100,0.00,,,0.17,,2013-06-03 12:22:00,
2013-06-03 08:32:00,61.0,61.0,29.97,North,1,0.0,0.0,100,0.00,,,0.17,,2013-06-03 12:32:00,
2013-06-03 08:42:00,61.0,61.0,29.97,North,1,0.0,0.0,100,0.00,,,0.17,,2013-06-03 12:42:00,
2013-06-03 08:52:00,61.0,61.0,29.98,North,354,1.0,2.0,100,0.00,,,0.17,,2013-06-03 12:52:00,
2013-06-03 09:02:00,61.0,61.0,29.98,West,264,2.0,3.0,100,0.00,,,0.17,,2013-06-03 13:02:00,
2013-06-03 09:12:00,61.0,61.0,29.98,West,264,2.0,3.0,100,0.00,,,0.17,,2013-06-03 13:12:00,
2013-06-03 09:22:00,62.0,62.0,29.98,WNW,293,1.0,5.0,99,0.00,,,0.17,,2013-06-03 13:22:00,
2013-06-03 09:32:00,62.0,61.0,29.99,WNW,283,5.0,5.0,98,0.00,,,0.17,,2013-06-03 13:32:00,
2013-06-03 09:42:00,62.0,61.0,29.99,WNW,283,5.0,5.0,98,0.00,,,0.17,,2013-06-03 13:42:00,
2013-06-03 09:52:00,62.0,61.0,29.99,NNE,21,3.0,3.0,98,0.00,,,0.17,,2013-06-03 13:52:00,
2013-06-03 10:02:00,62.0,62.0,29.99,NW,311,1.0,1.0,99,0.00,,,0.17,,2013-06-03 14:02:00,
2013-06-03 10:12:00,62.0,62.0,29.99,NW,311,1.0,1.0,99,0.00,,,0.17,,2013-06-03 14:12:00,
2013-06-03 10:22:00,62.0,61.0,29.99,West,274,0.0,0.0,98,0.00,,,0.17,,2013-06-03 14:22:00,
2013-06-03 10:32:00,62.0,61.0,29.99,WNW,291,3.0,3.0,97,0.00,,,0.17,,2013-06-03 14:32:00,
2013-06-03 10:42:00,62.0,61.0,29.99,WNW,291,3.0,3.0,97,0.00,,,0.17,,2013-06-03 14:42:00,
2013-06-03 10:52:00,62.0,61.0,30.00,WNW,302,3.0,3.0,98,0.00,,,0.17,,2013-06-03 14:52:00,
2013-06-03 11:02:00,63.0,62.0,30.00,NNW,332,2.0,2.0,98,0.00,,,0.17,,2013-06-03 15:02:00,
2013-06-03 11:12:00,63.0,62.0,30.00,NNW,332,2.0,2.0,98,0.00,,,0.17,,2013-06-03 15:12:00,
2013-06-03 11:22:00,62.0,61.0,30.01,WNW,297,2.0,4.0,98,0.00,,,0.17,,2013-06-03 15:22:00,
2013-06-03 11:33:00,62.0,61.0,30.01,West,280,1.0,0.0,98,0.00,,,0.17,,2013-06-03 15:33:00,
2013-06-03 11:43:00,62.0,61.0,30.01,West,280,1.0,0.0,98,0.00,,,0.17,,2013-06-03 15:43:00,
2013-06-03 11:53:00,63.0,62.0,30.01,NNW,343,0.0,2.0,98,0.00,,,0.17,,2013-06-03 15:53:00,
2013-06-03 12:03:00,63.0,62.0,30.01,NW,305,2.0,4.0,98,0.00,,,0.17,,2013-06-03 16:03:00,
2013-06-03 12:13:00,64.0,63.0,30.02,WNW,302,1.0,1.0,96,0.00,,,0.17,,2013-06-03 16:13:00,
2013-06-03 12:23:00,64.0,63.0,30.02,WNW,302,1.0,1.0,96,0.00,,,0.17,,2013-06-03 16:23:00,
2013-06-03 12:33:00,65.0,64.0,30.02,WNW,301,1.0,0.0,96,0.00,,,0.17,,2013-06-03 16:33:00,
2013-06-03 12:42:00,67.0,65.0,30.02,NW,321,2.0,2.0,92,0.00,,,0.17,,2013-06-03 16:42:00,
2013-06-03 12:53:00,67.0,65.0,30.02,NW,321,2.0,2.0,92,0.00,,,0.17,,2013-06-03 16:53:00,
2013-06-03 13:02:00,67.0,63.0,30.02,North,4,2.0,2.0,87,0.00,,,0.17,,2013-06-03 17:02:00,
2013-06-03 13:12:00,67.0,63.0,30.02,North,4,2.0,2.0,87,0.00,,,0.17,,2013-06-03 17:12:00,
2013-06-03 13:22:00,68.0,65.0,30.02,NW,307,1.0,0.0,89,0.00,,,0.17,,2013-06-03 17:22:00,
2013-06-03 13:33:00,69.0,64.0,30.01,NNE,23,1.0,0.0,83,0.00,,,0.17,,2013-06-03 17:33:00,
2013-06-03 13:42:00,70.0,62.0,30.01,SSW,194,2.0,3.0,75,0.00,,,0.17,,2013-06-03 17:42:00,
2013-06-03 13:52:00,70.0,62.0,30.01,SSW,194,2.0,3.0,75,0.00,,,0.17,,2013-06-03 17:52:00,
2013-06-03 14:02:00,68.0,63.0,30.01,SSW,207,4.0,4.0,83,0.00,,,0.17,,2013-06-03 18:02:00,
2013-06-03 14:12:00,68.0,63.0,30.01,South,191,1.0,1.0,85,0.00,,,0.17,,2013-06-03 18:12:00,
2013-06-03 14:22:00,68.0,63.0,30.01,South,191,1.0,1.0,85,0.00,,,0.17,,2013-06-03 18:22:00,
2013-06-03 14:32:00,70.0,61.0,30.00,SW,219,1.0,0.0,74,0.00,,,0.17,,2013-06-03 18:32:00,
2013-06-03 14:42:00,70.0,61.0,30.00,SW,219,1.0,0.0,74,0.00,,,0.17,,2013-06-03 18:42:00,
2013-06-03 14:52:00,72.0,63.0,30.00,West,271,6.0,8.0,73,0.00,,,0.17,,2013-06-03 18:52:00,
2013-06-03 15:03:00,70.0,62.0,29.99,NNW,347,1.0,0.0,75,0.00,,,0.17,,2013-06-03 19:03:00,
2013-06-03 15:12:00,70.0,62.0,29.99,NNW,347,1.0,0.0,75,0.00,,,0.17,,2013-06-03 19:12:00,
2013-06-03 15:22:00,70.0,60.0,29.99,NW,316,3.0,3.0,71,0.00,,,0.17,,2013-06-03 19:22:00,
2013-06-03 15:32:00,71.0,60.0,29.98,North,352,1.0,0.0,68,0.00,,,0.17,,2013-06-03 19:32:00,
2013-06-03 15:42:00,71.0,60.0,29.98,North,352,1.0,0.0,68,0.00,,,0.17,,2013-06-03 19:42:00,
2013-06-03 15:53:00,71.0,59.0,29.98,NW,321,2.0,2.0,67,0.00,,,0.17,,2013-06-03 19:53:00,
2013-06-03 16:02:00,72.0,60.0,29.98,NW,311,2.0,0.0,66,0.00,,,0.17,,2013-06-03 20:02:00,
2013-06-03 16:12:00,72.0,60.0,29.98,NW,311,2.0,0.0,66,0.00,,,0.17,,2013-06-03 20:12:00,
2013-06-03 16:22:00,72.0,59.0,29.97,North,354,1.0,3.0,63,0.00,,,0.17,,2013-06-03 20:22:00,
2013-06-03 16:32:00,72.0,57.0,29.97,NW,323,3.0,6.0,59,0.00,,,0.17,,2013-06-03 20:32:00,
2013-06-03 16:42:00,72.0,57.0,29.97,NW,323,3.0,6.0,59,0.00,,,0.17,,2013-06-03 20:42:00,
2013-06-03 16:52:00,72.0,59.0,29.97,WNW,290,5.0,0.0,64,0.00,,,0.17,,2013-06-03 20:52:00,
2013-06-03 17:02:00,73.0,60.0,29.96,NW,314,1.0,3.0,64,0.00,,,0.17,,2013-06-03 21:02:00,
2013-06-03 17:12:00,73.0,59.0,29.96,NW,311,1.0,1.0,61,0.00,,,0.17,,2013-06-03 21:12:00,
2013-06-03 17:22:00,73.0,59.0,29.96,NW,311,1.0,1.0,61,0.00,,,0.17,,2013-06-03 21:22:00,
2013-06-03 17:33:00,72.0,59.0,29.97,NW,314,0.0,0.0,64,0.00,,,0.17,,2013-06-03 21:33:00,
2013-06-03 17:43:00,72.0,59.0,29.97,NW,314,0.0,0.0,64,0.00,,,0.17,,2013-06-03 21:43:00,
2013-06-03 17:53:00,72.0,56.0,29.96,NNW,343,4.0,4.0,58,0.00,,,0.17,,2013-06-03 21:53:00,
2013-06-03 18:03:00,73.0,57.0,29.96,WNW,288,5.0,5.0,57,0.00,,,0.17,,2013-06-03 22:03:00,
2013-06-03 18:12:00,73.0,57.0,29.96,WNW,288,5.0,5.0,57,0.00,,,0.17,,2013-06-03 22:12:00,
2013-06-03 18:22:00,72.0,58.0,29.97,WNW,291,4.0,4.0,62,0.00,,,0.17,,2013-06-03 22:22:00,
2013-06-03 18:33:00,71.0,59.0,29.97,North,7,1.0,1.0,66,0.00,,,0.17,,2013-06-03 22:33:00,
2013-06-03 18:42:00,71.0,59.0,29.97,North,7,1.0,1.0,66,0.00,,,0.17,,2013-06-03 22:42:00,
2013-06-03 18:52:00,72.0,59.0,29.97,NNW,342,2.0,2.0,64,0.00,,,0.17,,2013-06-03 22:52:00,
2013-06-03 19:02:00,71.0,59.0,29.97,WNW,297,2.0,0.0,65,0.00,,,0.17,,2013-06-03 23:02:00,
2013-06-03 19:12:00,71.0,59.0,29.97,WNW,297,2.0,0.0,65,0.00,,,0.17,,2013-06-03 23:12:00,
2013-06-03 19:22:00,71.0,59.0,29.97,NW,326,4.0,4.0,66,0.00,,,0.17,,2013-06-03 23:22:00,
2013-06-03 19:32:00,70.0,59.0,29.97,West,280,2.0,2.0,67,0.00,,,0.17,,2013-06-03 23:32:00,
2013-06-03 19:42:00,70.0,59.0,29.97,West,280,2.0,2.0,67,0.00,,,0.17,,2013-06-03 23:42:00,
2013-06-03 19:52:00,69.0,58.0,29.98,WNW,295,2.0,2.0,69,0.00,,,0.17,,2013-06-03 23:52:00,
2013-06-03 20:02:00,68.0,59.0,29.99,WNW,300,2.0,0.0,72,0.00,,,0.17,,2013-06-04 00:02:00,
2013-06-03 20:12:00,68.0,59.0,29.99,WNW,300,2.0,0.0,72,0.00,,,0.17,,2013-06-04 00:12:00,
2013-06-03 20:22:00,68.0,59.0,29.99,WNW,297,1.0,0.0,73,0.00,,,0.17,,2013-06-04 00:22:00,
2013-06-03 20:32:00,67.0,59.0,30.00,WNW,302,0.0,0.0,75,0.00,,,0.17,,2013-06-04 00:32:00,
2013-06-03 20:42:00,67.0,59.0,30.00,WNW,302,0.0,0.0,75,0.00,,,0.17,,2013-06-04 00:42:00,
2013-06-03 20:52:00,66.0,58.0,30.00,NW,304,0.0,0.0,76,0.00,,,0.17,,2013-06-04 00:52:00,
2013-06-03 21:02:00,66.0,59.0,30.01,NW,304,0.0,0.0,79,0.00,,,0.17,,2013-06-04 01:02:00,
2013-06-03 21:12:00,66.0,59.0,30.01,NW,304,0.0,0.0,79,0.00,,,0.17,,2013-06-04 01:12:00,
2013-06-03 21:22:00,65.0,58.0,30.02,NW,311,1.0,1.0,78,0.00,,,0.17,,2013-06-04 01:22:00,
2013-06-03 21:32:00,64.0,57.0,30.02,WNW,295,0.0,0.0,79,0.00,,,0.17,,2013-06-04 01:32:00,
2013-06-03 21:42:00,64.0,57.0,30.02,WNW,295,0.0,0.0,79,0.00,,,0.17,,2013-06-04 01:42:00,
2013-06-03 21:53:00,64.0,58.0,30.03,WNW,295,0.0,0.0,80,0.00,,,0.17,,2013-06-04 01:53:00,
2013-06-03 22:02:00,63.0,57.0,30.03,WNW,295,0.0,0.0,82,0.00,,,0.17,,2013-06-04 02:02:00,
2013-06-03 22:12:00,63.0,58.0,30.03,WNW,295,0.0,0.0,83,0.00,,,0.17,,2013-06-04 02:12:00,
2013-06-03 22:22:00,63.0,58.0,30.03,WNW,295,0.0,0.0,83,0.00,,,0.17,,2013-06-04 02:22:00,
2013-06-03 22:32:00,63.0,58.0,30.04,WNW,295,0.0,0.0,83,0.00,,,0.17,,2013-06-04 02:32:00,
2013-06-03 22:42:00,63.0,58.0,30.04,WNW,295,0.0,0.0,83,0.00,,,0.17,,2013-06-04 02:42:00,
2013-06-03 22:52:00,62.0,57.0,30.04,NW,311,0.0,1.0,85,0.00,,,0.17,,2013-06-04 02:52:00,
2013-06-03 23:02:00,62.0,58.0,30.04,WNW,294,0.0,0.0,86,0.00,,,0.17,,2013-06-04 03:02:00,
2013-06-03 23:12:00,62.0,58.0,30.04,WNW,294,0.0,0.0,86,0.00,,,0.17,,2013-06-04 03:12:00,
2013-06-03 23:22:00,61.0,57.0,30.05,WNW,294,0.0,0.0,88,0.00,,,0.17,,2013-06-04 03:22:00,
2013-06-03 23:32:00,60.0,57.0,30.05,WNW,294,0.0,0.0,89,0.00,,,0.17,,2013-06-04 03:32:00,
2013-06-03 23:43:00,60.0,57.0,30.05,WNW,294,0.0,0.0,89,0.00,,,0.17,,2013-06-04 03:43:00,
2013-06-03 23:53:00,60.0,57.0,30.05,WNW,294,0.0,0.0,90,0.00,,,0.17,,2013-06-04 03:53:00,